This is the latest recevied weather packets stored in our database for station/object WK1F-2. If no packets are shown the sender has not sent any weather packets the latest 10 day(s).
| Time | Temp. | Humidity | Pressure | Rain* | Wind** | Luminosity | Snow |
|---|---|---|---|---|---|---|---|
| 1777827962 | 20° C | 59% | 1019.4 hPa | 0 mm | - | - | - |
| 1777827662 | 20° C | 61% | 1019.5 hPa | 0 mm | - | - | - |
| 1777827362 | 20° C | 60% | 1019.6 hPa | 0 mm | - | - | - |
| 1777827062 | 20° C | 63% | 1019.7 hPa | 0 mm | - | - | - |
| 1777826762 | 20° C | 65% | 1019.7 hPa | 0 mm | - | - | - |
| 1777826462 | 20° C | 68% | 1019.7 hPa | 0 mm | - | - | - |
| 1777826162 | 20° C | 66% | 1019.8 hPa | 0 mm | - | - | - |
| 1777825862 | 20° C | 70% | 1019.8 hPa | 0 mm | - | - | - |
| 1777825562 | 19.44° C | 68% | 1019.7 hPa | 0 mm | - | - | - |
| 1777825262 | 18.89° C | 70% | 1019.7 hPa | 0 mm | - | - | - |
| 1777824962 | 18.89° C | 69% | 1019.9 hPa | 0 mm | - | - | - |
| 1777824662 | 19.44° C | 70% | 1019.9 hPa | 0 mm | - | - | - |
| 1777824362 | 19.44° C | 69% | 1019.6 hPa | 0 mm | - | - | - |
| 1777824062 | 19.44° C | 70% | 1019.4 hPa | 0 mm | - | - | - |
| 1777823762 | 19.44° C | 71% | 1019.4 hPa | 0 mm | - | - | - |
| 1777823462 | 19.44° C | 72% | 1019.4 hPa | 0 mm | - | - | - |
| 1777823162 | 18.89° C | 70% | 1019.5 hPa | 0 mm | - | - | - |
| 1777822862 | 18.89° C | 72% | 1019.5 hPa | 0 mm | - | - | - |
| 1777822562 | 18.89° C | 72% | 1019.6 hPa | 0 mm | - | - | - |
| 1777822262 | 18.89° C | 72% | 1019.6 hPa | 0 mm | - | - | - |
| 1777821962 | 18.89° C | 72% | 1019.7 hPa | 0 mm | - | - | - |
| 1777821662 | 18.89° C | 72% | 1019.6 hPa | 0 mm | - | - | - |
| 1777821362 | 18.89° C | 73% | 1019.6 hPa | 0 mm | - | - | - |
| 1777821062 | 18.89° C | 73% | 1019.5 hPa | 0 mm | - | - | - |
| 1777820762 | 18.89° C | 71% | 1019.7 hPa | 0 mm | - | - | - |
* Rain latest hour (hover to see other rain measurements)
** Current wind speed in m/s (hover to see current wind gust speed)